Weather in Birsk

Russia / Republic of Bashkortostan     55°25′03″N   55°31′50″E
temp.,
°C
wind,
m/s
gust,
m/s
humid.,
%
clouds,
%
prec.,
mm/h
press.,
hPa
HPBL,
m
2 march, tue
tue223:00−19wsw239991 0.1 101825
02:00−21sw339984 0.0 101729
05:00−22s469870 0.0 101592
08:00−20s7129588 0.0 1012269
11:00−16s9139494 0.1 1009404
14:00−11s81394100 1.0 1005634
17:00−9ssw81394100 2.4 1003690
20:00−7s81395100 1.8 1001642
3 march, wed
wed323:00−5ssw81495100 3.9 999656
02:00−4ssw71394100 0.8 997490
05:00−2wsw61192100 1.0 997550
08:00−3wsw699299 0.1 997567
11:00−4wsw6893100 0.1 998459
14:00−2w579199 0.2 999677
17:00−2wsw5794100 0.5 999542
20:00−4wsw51096100 0.3 1000404
4 march, thu
thu423:00−6wsw51095100 0.9 1001365
02:00−6w51096100 0.7 1000404
05:00−9wnw61193100 1.0 1002373
08:00−14w499796 0.0 1004188
11:00−10wsw589495 0.1 1005332
14:00−7sw6992100 0.1 1004511
17:00−5sw61090100 0.3 1004685
20:00−7ssw61393100 0.1 1003567
5 march, fri
fri523:00−6ssw91594100 1.2 1001732
02:00−4ssw91795100 2.1 997900
05:00−1sw111891100 2.8 9951074
08:00−1sw111894100 0.6 996997
11:00−1wsw101595100 1.4 9981052
14:00−2w8147596 0.4 1001990
17:00−3w5118394 0.4 1004670
20:00−7w3492100 0.0 100677
6 march, sat
sat623:00−12w349679 0.0 100946
02:00−14w239782 0.0 101023
05:00−16w119989 0.0 101220
08:00−14ese1194100 0.0 101020
11:00−9e4695100 0.3 1006234
14:00−5e6996100 2.5 1000464
17:00−2sw2898100 6.1 997403
20:00−7nnw7995100 2.8 996295